Satellite: NO-44
Catalog number: 26931
Epoch time:      11229.88322632
Element set:    0829
Inclination:      067.0514 deg
RA of node:       184.5503 deg
Eccentricity:    0.0005762
Arg of perigee:   254.1281 deg
Mean anomaly:     105.9200 deg
Mean motion:   14.29673826 rev/day
Decay rate:       1.36e-06 rev/day^2
Epoch rev:           51574
Checksum:              296

Satellite: SO-50
Catalog number: 27607
Epoch time:      11230.23854360
Element set:     543
Inclination:      064.5589 deg
RA of node:       139.1099 deg
Eccentricity:    0.0077705
Arg of perigee:   308.0158 deg
Mean anomaly:     051.3947 deg
Mean motion:   14.71792158 rev/day
Decay rate:       1.41e-06 rev/day^2
Epoch rev:           46522
Checksum:              306

Satellite: CO-55
Catalog number: 27844
Epoch time:      11229.58429705
Element set:    0179
Inclination:      098.7066 deg
RA of node:       237.3960 deg
Eccentricity:    0.0010457
Arg of perigee:   025.6486 deg
Mean anomaly:     334.5209 deg
Mean motion:   14.20833486 rev/day
Decay rate:        9.1e-07 rev/day^2
Epoch rev:           42163
Checksum:              323

Satellite: CO-57
Catalog number: 27848
Epoch time:      11229.53728220
Element set:    0128
Inclination:      098.7150 deg
RA of node:       236.5606 deg
Eccentricity:    0.0010401
Arg of perigee:   031.5773 deg
Mean anomaly:     328.6021 deg
Mean motion:   14.20610697 rev/day
Decay rate:        8.7e-07 rev/day^2
Epoch rev:           42157
Checksum:              289

Satellite: AO-51
Catalog number: 28375
Epoch time:      11230.47502775
Element set:      48
Inclination:      098.1037 deg
RA of node:       205.6637 deg
Eccentricity:    0.0082802
Arg of perigee:   241.5762 deg
Mean anomaly:     117.7070 deg
Mean motion:   14.40773514 rev/day
Decay rate:        4.7e-07 rev/day^2
Epoch rev:           37503
Checksum:              290

Satellite: CP3
Catalog number: 31129
Epoch time:      11229.66526802
Element set:    0947
Inclination:      097.8962 deg
RA of node:       250.3222 deg
Eccentricity:    0.0100656
Arg of perigee:   351.0308 deg
Mean anomaly:     008.9050 deg
Mean motion:   14.52538518 rev/day
Decay rate:       1.95e-06 rev/day^2
Epoch rev:           22976
Checksum:              298

Satellite: CO-65
Catalog number: 32785
Epoch time:      11229.65221563
Element set:    0072
Inclination:      097.8435 deg
RA of node:       292.3555 deg
Eccentricity:    0.0014625
Arg of perigee:   340.2949 deg
Mean anomaly:     019.7694 deg
Mean motion:   14.82077217 rev/day
Decay rate:        2.2e-07 rev/day^2
Epoch rev:           17864
Checksum:              322

Satellite: PRISM
Catalog number: 33493
Epoch time:      11230.75768352
Element set:     877
Inclination:      098.1319 deg
RA of node:       000.3111 deg
Eccentricity:    0.0019252
Arg of perigee:   195.4559 deg
Mean anomaly:     164.6076 deg
Mean motion:   14.81842312 rev/day
Decay rate:       8.01e-06 rev/day^2
Epoch rev:           13878
Checksum:              297

Satellite: SOHLA-1
Catalog number: 33496
Epoch time:      11229.93942442
Element set:    0502
Inclination:      098.0849 deg
RA of node:       339.1612 deg
Eccentricity:    0.0005796
Arg of perigee:   293.6257 deg
Mean anomaly:     066.4340 deg
Mean motion:   14.69643972 rev/day
Decay rate:       1.16e-06 rev/day^2
Epoch rev:           13755
Checksum:              322

Satellite: TISAT-1
Catalog number: 36799
Epoch time:      11230.78365942
Element set:     151
Inclination:      098.0973 deg
RA of node:       299.6442 deg
Eccentricity:    0.0016629
Arg of perigee:   076.1294 deg
Mean anomaly:     284.1755 deg
Mean motion:   14.80661705 rev/day
Decay rate:       5.32e-06 rev/day^2
Epoch rev:            5957
Checksum:              334

Satellite: STUDSAT
Catalog number: 36801
Epoch time:      11229.83929961
Element set:     227
Inclination:      098.1045 deg
RA of node:       298.5993 deg
Eccentricity:    0.0014722
Arg of perigee:   068.0099 deg
Mean anomaly:     292.2675 deg
Mean motion:   14.80877824 rev/day
Decay rate:      1.380e-05 rev/day^2
Epoch rev:            5942
Checksum:              333

Satellite: OOREOS
Catalog number: 37224
Epoch time:      11153.29456974
Element set:    0179
Inclination:      071.9726 deg
RA of node:       071.8135 deg
Eccentricity:    0.0020315
Arg of perigee:   307.7637 deg
Mean anomaly:     052.1684 deg
Mean motion:   14.77036357 rev/day
Decay rate:       4.92e-06 rev/day^2
Epoch rev:           02867
Checksum:              309

Satellite: FO-69
Catalog number: 37227
Epoch time:      11230.45213982
Element set:    0110
Inclination:      071.9685 deg
RA of node:       261.9722 deg
Eccentricity:    0.0016980
Arg of perigee:   171.3961 deg
Mean anomaly:     188.7475 deg
Mean motion:   14.76625575 rev/day
Decay rate:       1.36e-06 rev/day^2
Epoch rev:           01851
Checksum:              319

Satellite: NANOSALD
Catalog number: 37361
Epoch time:      11230.28098225
Element set:    0331
Inclination:      071.9704 deg
RA of node:       249.7190 deg
Eccentricity:    0.0027311
Arg of perigee:   266.3350 deg
Mean anomaly:     093.3370 deg
Mean motion:   15.20171657 rev/day
Decay rate:     7.9687e-04 rev/day^2
Epoch rev:           03149
Checksum:              290

